Home > Weather > Bentonville > Past weeks

Flag for U.S.A. Weather for the Past 2 Weeks in Bentonville, Arkansas, U.S.A.

Now
36 °F

Overcast.


Feels Like: 27 °F
Forecast: 32 / 42 °F
Wind: 14 mph from Southeast

Location: Bentonville Weather Observing Station

Current Time: Feb 14, 2016 at 3:25:13 AM

Latest Report: Feb 14, 2016 at 2:55 AM


Visibility: 10 mi

Pressure: 30.04 "Hg

Humidity: 38%

Dew point: 12 °F

Location of BentonvilleLocation

Historic Weather in Bentonville — Graph

°F

Bentonville Temperature Yesterday

Maximum temperature yesterday: 48 °F (at 3:35 PM)
Minimum temperature yesterday: 28 °F (at 3:35 AM)
Average temperature yesterday: 36 °F

High & Low Weather Summary for the Past Weeks

 TemperatureHumidityPressure
High66 °F (Jan 31, 12:55 PM)80% (Feb 4, 7:55 AM)30.51 "Hg (Feb 4, 7:55 AM)
Low19 °F (Feb 4, 6:35 AM)21% (Feb 13, 12:35 PM)29.54 "Hg (Feb 2, 5:35 AM)
Average39 °F47%30.17 "Hg
* Reported Jan 30 7:15 AM — Feb 14 2:15 AM, Bentonville, Weather by CustomWeather, © 2016

Note: Actual official high and low records may vary slightly from our data, if they occured in-between our weather recording intervals... More about our weather records

Advertising

Bentonville Weather History for the Previous 24 Hours

 ConditionsComfort  
Time TempWeatherWind HumidityBarometerVisibility
2:15 AM
Sun, Feb 14
36 °FOvercast.13 mph38%30.06 "Hg10 mi
1:35 AM36 °FOvercast.16 mph35%30.09 "Hg10 mi
1:15 AM36 °FOvercast.14 mph35%30.11 "Hg10 mi
12:55 AM36 °FOvercast.14 mph35%30.13 "Hg10 mi
12:35 AM36 °FOvercast.14 mph35%30.13 "Hg10 mi
12:15 AM36 °FOvercast.13 mph35%30.14 "Hg10 mi
11:55 PM
Sat, Feb 13
36 °FOvercast.12 mph32%30.16 "Hg10 mi
11:35 PM36 °FOvercast.9 mph32%30.16 "Hg10 mi
11:15 PM36 °FOvercast.12 mph32%30.18 "Hg10 mi
10:55 PM36 °FOvercast.12 mph32%30.18 "Hg10 mi
10:35 PM36 °FMostly cloudy.9 mph32%30.19 "Hg10 mi
9:55 PM36 °FClear.14 mph32%30.18 "Hg10 mi
9:35 PM36 °FClear.17 mph35%30.17 "Hg10 mi
8:55 PM37 °FPassing clouds.15 mph35%30.18 "Hg10 mi
8:35 PM37 °FPassing clouds.14 mph33%30.18 "Hg10 mi
7:55 PM39 °FClear.13 mph30%30.20 "Hg10 mi
7:35 PM39 °FClear.14 mph33%30.20 "Hg10 mi
7:15 PM41 °FClear.13 mph31%30.20 "Hg10 mi
6:55 PM43 °FClear.15 mph29%30.21 "Hg10 mi
6:35 PM43 °FClear.13 mph29%30.22 "Hg10 mi
6:15 PM43 °FClear.7 mph29%30.22 "Hg10 mi
5:55 PM45 °FClear.9 mph25%30.23 "Hg10 mi
5:35 PM46 °FSunny.9 mph23%30.24 "Hg10 mi
5:15 PM46 °FSunny.9 mph23%30.24 "Hg10 mi
4:55 PM48 °FSunny.12 mph21%30.25 "Hg10 mi
4:35 PM48 °FSunny.10 mph21%30.26 "Hg10 mi
3:55 PM48 °FSunny.7 mph21%30.28 "Hg10 mi
3:35 PM48 °FSunny.9 mph21%30.29 "Hg10 mi
2:55 PM46 °FSunny.8 mph21%30.32 "Hg10 mi
2:35 PM46 °FSunny.8 mph21%30.34 "Hg10 mi
2:15 PM45 °FSunny.8 mph21%30.35 "Hg10 mi
1:55 PM45 °FSunny.10 mph23%30.37 "Hg10 mi
1:35 PM45 °FSunny.6 mph21%30.38 "Hg10 mi
1:15 PM43 °FSunny.6 mph22%30.40 "Hg10 mi
12:55 PM43 °FSunny.9 mph22%30.42 "Hg10 mi
12:35 PM43 °FSunny.9 mph21%30.43 "Hg10 mi
12:15 PM41 °FSunny.8 mph24%30.44 "Hg10 mi
11:55 AM39 °FSunny.9 mph24%30.45 "Hg10 mi
11:35 AM39 °FSunny.8 mph24%30.47 "Hg10 mi
11:15 AM37 °FSunny.7 mph28%30.47 "Hg10 mi
10:55 AM36 °FSunny.12 mph27%30.48 "Hg10 mi
10:35 AM36 °FSunny.10 mph30%30.49 "Hg10 mi
10:15 AM36 °FSunny.12 mph27%30.50 "Hg10 mi
9:55 AM34 °FSunny.13 mph29%30.50 "Hg10 mi
9:35 AM32 °FSunny.9 mph32%30.51 "Hg10 mi
9:15 AM30 °FSunny.8 mph37%30.50 "Hg10 mi
8:55 AM30 °FSunny.10 mph37%30.51 "Hg10 mi
8:35 AM28 °FScattered clouds.10 mph40%30.51 "Hg10 mi
8:15 AM28 °FOvercast.10 mph37%30.51 "Hg10 mi
7:55 AM28 °FOvercast.12 mph37%30.51 "Hg10 mi
7:35 AM28 °FOvercast.10 mph37%30.51 "Hg10 mi
7:15 AM28 °FOvercast.8 mph34%30.50 "Hg10 mi
6:55 AM28 °FPassing clouds.6 mph37%30.50 "Hg10 mi
6:35 AM28 °FClear.7 mph34%30.50 "Hg10 mi
6:15 AM28 °FClear.7 mph40%30.49 "Hg10 mi
5:55 AM28 °FClear.6 mph40%30.48 "Hg10 mi
5:35 AM28 °FClear.7 mph43%30.48 "Hg10 mi
5:15 AM28 °FClear.7 mph43%30.49 "Hg10 mi
4:55 AM28 °FPassing clouds.9 mph43%30.49 "Hg10 mi
4:35 AM28 °FPassing clouds.9 mph43%30.48 "Hg10 mi
4:15 AM28 °FPassing clouds.8 mph43%30.48 "Hg10 mi
3:55 AM28 °FPassing clouds.9 mph43%30.48 "Hg10 mi
3:35 AM28 °FPassing clouds.7 mph43%30.49 "Hg10 mi
3:15 AM30 °FPassing clouds.12 mph43%30.49 "Hg10 mi
Weather by CustomWeather, © 2016

See weather overviewHow to use our weather pages